Mombasa, Kenya

10:54 PM EAT on December 06, 2016 (GMT +0300)
Mombasa

Weather History for HKMO - May, 2013

Change the Weather History Date:

Tuesday, May 7, 2013

  Actual Average Record
Temperature  
Mean Temperature 78 °F -  
Max Temperature 83 °F 87 °F 90 °F (2012)
Min Temperature 73 °F 70 °F 72 °F (2014)
Cooling Degree Days 13    
Growing Degree Days 28 (Base 50)    
Moisture  
Dew Point 72 °F    
Average Humidity 83    
Maximum Humidity 97    
Minimum Humidity 62    
Precipitation  
Precipitation 0.03 in 0.26 in - ()
Sea Level Pressure  
Sea Level Pressure 29.96 in    
Wind  
Wind Speed 10 mph ()    
Max Wind Speed 21 mph    
Max Gust Speed -    
Visibility 8.0 miles    
Events Rain    
Averages and records for this station are not official NWS values.
T = Trace of Precipitation, MM = Missing Value Source: Averaged Metar Reports

Daily Weather History Graph

Daily Weather History Graph

Search for Another Location

Airport or City:

Trip Planner

Search our weather history database for the weather conditions in past years. The results will help you decide how hot, cold, wet, or windy it might be!

Date:

Astronomy

May. 07, 2013 Rise Set
Actual Time 6:19 AM EAT 6:16 PM EAT
Civil Twilight 5:57 AM EAT 6:38 PM EAT
Nautical Twilight 5:32 AM EAT 7:03 PM EAT
Astronomical Twilight 5:07 AM EAT 7:28 PM EAT
Moon 4:06 AM EAT (5/7) 4:23 PM EAT (5/7)
Length of Visible Light 12h 40m
Length of Day
11h 57m
Waning Crescent, 7% of the Moon is Illuminated
May 7
Waning Crescent
May 10
New
May 18
First Quarter
May 25
Full
May 31
Last Quarter

Hourly Weather History & Observations

Time (EAT) Temp. Heat Index Dew Point Humidity Pressure Visibility Wind Dir Wind Speed Gust Speed Precip Events Conditions
2:00 AM 75.2 °F - 73.4 °F 94% 29.95 in 6.2 mi South 12.7 mph - N/A   Mostly Cloudy
3:00 AM 76 °F - 75 °F 97% 29.93 in 19 mi South 8.1 mph - -   Scattered Clouds
3:00 AM 77.0 °F - 75.2 °F 94% 29.92 in 6.2 mi South 3.5 mph - N/A   Mostly Cloudy
4:00 AM 75.2 °F - 73.4 °F 94% 29.92 in 6.2 mi South 12.7 mph - N/A   Overcast
5:00 AM 75.2 °F - 73.4 °F 94% 29.92 in 6.2 mi SSW 11.5 mph - N/A   Mostly Cloudy
6:00 AM 75.2 °F - 73.4 °F 94% 29.95 in 6.2 mi SW 9.2 mph - N/A   Mostly Cloudy
7:00 AM 75.2 °F - 71.6 °F 89% 29.95 in 6.2 mi SSW 11.5 mph - N/A   Scattered Clouds
8:00 AM 77.0 °F - 73.4 °F 89% 29.98 in 6.2 mi SW 11.5 mph - N/A   Mostly Cloudy
9:00 AM 77 °F - 74 °F 86% 30.00 in 12 mi South 17.3 mph - -   Scattered Clouds
9:00 AM 77.0 °F - 73.4 °F 89% 30.01 in 6.2 mi South 17.3 mph - N/A   Mostly Cloudy
10:00 AM 75.2 °F - 73.4 °F 94% 30.01 in 5.6 mi SSW 13.8 mph - N/A Rain Light Rain Showers
11:00 AM 75.2 °F - 73.4 °F 94% 30.01 in 6.2 mi SSW 13.8 mph - N/A   Mostly Cloudy
12:00 PM 77.0 °F - 73.4 °F 89% 30.01 in 6.2 mi SSW 13.8 mph - N/A   Mostly Cloudy
1:00 PM 80.6 °F 85.4 °F 73.4 °F 79% 29.98 in 6.2 mi South 19.6 mph - N/A   Mostly Cloudy
2:00 PM 80.6 °F 83.9 °F 69.8 °F 70% 29.95 in 6.2 mi South 20.7 mph - N/A   Mostly Cloudy
3:00 PM 81 °F - 71 °F 63% 29.92 in 19 mi SSW 11.5 mph - -   Scattered Clouds
4:00 PM 82.4 °F 85.4 °F 68.0 °F 62% 29.92 in 6.2 mi SSW 18.4 mph - N/A   Mostly Cloudy
5:00 PM 80.6 °F 83.2 °F 68.0 °F 65% 29.92 in 6.2 mi South 9.2 mph - N/A   Mostly Cloudy
6:00 PM 78.8 °F - 66.2 °F 65% 29.95 in 6.2 mi South 13.8 mph - N/A   Overcast
7:00 PM 77.0 °F - 69.8 °F 78% 29.95 in 6.2 mi SSW 5.8 mph - N/A   Mostly Cloudy
8:00 PM 77.0 °F - 69.8 °F 78% 29.95 in 6.2 mi SSW 9.2 mph - N/A   Mostly Cloudy
9:00 PM 77 °F - 69 °F 68% 29.97 in 19 mi South 5.8 mph - -   Scattered Clouds
9:00 PM 77.0 °F - 68.0 °F 74% 29.98 in 6.2 mi South 5.8 mph - N/A   Mostly Cloudy
10:00 PM 75.2 °F - 69.8 °F 83% 29.98 in 6.2 mi SSW 5.8 mph - N/A   Mostly Cloudy